Other Public Products
Issued by NWS Grand Forks, ND

Home | Current Version | Previous Version | Graphics & Text | Print | Product List | Glossary On
Versions: 1 2 3 4 5 6 7 8 9 10 11 12 13 14 15 16 17 18 19 20 21 22 23 24 25 26 27 28 29 30 31 32 33 34 35 36 37 38 39 40 41 42 43 44 45 46 47 48 49 50
000
FPUS83 KFGF 240931
OPUFGF
PRAIRIE TO PINES WEATHER ROUNDUP
NATIONAL WEATHER SERVICE EASTERN NORTH DAKOTA/GRAND FORKS ND
300 AM CST TUE JAN 24 2017

 **SATELLITE DATA USED TO AUGMENT SKY COVER AT AUTOMATED STATIONS**
 *****  WEATHER ACROSS EASTERN NORTH DAKOTA  *****

CITY           SKY/WX    TMP DP  RH WIND       PRES   REMARKS
GRAND FORKS    CLOUDY    26  19  74 W9        29.85S WCI  17
GRAND FORKS AF CLOUDY    25  19  78 W9        29.85S WCI  15
GRAND CITY NWS NOT AVBL
BUXTON           N/A     26  24  93 W8          N/A  WCI  18
DEVILS LAKE    CLOUDY    22  19  89 W14       29.82R WCI   9
FARGO          CLOUDY    32  26  78 SW5       29.86R
WAHPETON ARPT  CLOUDY    32  27  80 CALM      29.87R
$$

 *****  WEATHER ACROSS CENTRAL AND WESTERN NORTH DAKOTA  *****

CITY           SKY/WX    TMP DP  RH WIND       PRES   REMARKS
JAMESTOWN      CLOUDY    28  23  81 NW10      29.82S WCI  19
BISMARCK       CLOUDY    24  19  81 N10       29.86R WCI  14
MINOT          CLOUDY    24  19  81 W9        29.82R WCI  14
MINOT AFB      CLOUDY    23  19  85 W15       29.81R WCI  10
GARRISON         N/A     20  17  88 NW6       29.83R WCI  12
WILLISTON      CLOUDY    22  18  85 NW7       29.86R WCI  13
DICKINSON      CLOUDY    20  17  88 N3        29.80R
HETTINGER      CLOUDY    21  20  96 N6        29.81S FOG     WCI  13
$$

 *****  OTHER OBSERVATIONS NORTHEAST NORTH DAKOTA  *****

CITY           SKY/WX    TMP DP  RH WIND       PRES   REMARKS
WALHALLA       NOT AVBL
LANGDON        NOT AVBL
CAVALIER       CLOUDY    27  23  86 SW10      29.82R WCI  17
GRAFTON        CLOUDY    27  23  86 SW8       29.85S WCI  18
CANDO          NOT AVBL
FORT TOTTEN      N/A     21  20  98 W7        29.95S WCI  12
ROLLA            N/A    N/A N/A N/A MISG        N/A
RUGBY            N/A     21  19  93 W13       29.81S WCI   9
 ***** THE ABOVE OBSERVATIONS ARE NON NWS ARE NOT QUALITY
        CONTROLLED AND MAY MIS-REPORT RAIN FOR SNOW...
$$

 *****  OTHER OBSERVATIONS SOUTHEAST NORTH DAKOTA *****

CITY           SKY/WX    TMP DP  RH WIND       PRES   REMARKS
COOPERSTOWN    CLOUDY    25  21  86 NW12      29.84R WCI  14
VALLEY CITY    CLOUDY    28  28 100 W7        29.86R WCI  21
OAKES          NOT AVBL
GWINNER        CLOUDY    30  28  93 N5        29.86R
SHEYENNE NWR     N/A     29  24  82 CALM      29.95S
BUFFALO          N/A     29  23  78 CALM        N/A
WYNDMERE         N/A     30  28  93 VRB3        N/A
 ***** THE ABOVE OBSERVATIONS ARE NON NWS ARE NOT QUALITY
       CONTROLLED AND MAY MIS-REPORT RAIN FOR SNOW...
$$

  *****  WEATHER ACROSS NORTHERN MINNESOTA  *****

CITY           SKY/WX    TMP DP  RH WIND       PRES   REMARKS
FLAG ISLAND    CLOUDY    27  21  80 SW5       29.81R WCI  21
WARROAD        CLOUDY    25  21  86 SW7       29.83R WCI  17
ROSEAU         CLOUDY    27  21  80 SW12      29.83R WCI  16
HALLOCK        CLOUDY    27  25  93 SW9       29.82S WCI  17
THF RVR FALLS  CLOUDY    24  20  84 W10       29.85R WCI  14
HALSTAD          N/A     29  25  84 NW8         N/A  WCI  21
FOSSTON        CLOUDY    27  23  86 SW9       29.84S WCI  17
BAUDETTE       CLOUDY    27  21  78 W8        29.82R WCI  19
WASKISH        CLOUDY    28  25  86 W10       29.84S WCI  19
CROOKSTON      CLOUDY    25  21  86 W12       29.87S WCI  14
$$
  *****  WEATHER ACROSS CENTRAL AND WEST MINNESOTA  *****

CITY           SKY/WX    TMP DP  RH WIND       PRES   REMARKS
BEMIDJI        CLOUDY    27  23  84 W5        29.84S WCI  22
PARK RAPIDS    CLOUDY    29  21  72 NW8       29.83S WCI  21
WADENA         CLOUDY    28  25  86 CALM      29.84S
DETROIT LAKES  CLOUDY    30  27  86 CALM      29.84F
MOORHEAD       CLOUDY    30  25  80 CALM      29.87S
FERGUS FALLS   CLOUDY    30  27  86 CALM      29.89S
ELBOW LAKE     CLOUDY    30  28  94 CALM      29.86R FOG
MORRIS MN      CLOUDY    30  27  86 CALM      29.86R
STAPLES        CLOUDY    28  25  86 W3        29.85R
WHEATON        CLOUDY    30  28  93 CALM      29.89R
$$
  *****  WEATHER ELSEWHERE ACROSS MINNESOTA  *****

CITY           SKY/WX    TMP DP  RH WIND       PRES   REMARKS
DULUTH         CLOUDY    31  29  92 NW7       29.82R WCI  24
INTRNTL FALLS  CLOUDY    29  24  82 SW5       29.83R WCI  24
ELY            CLOUDY    30  28  93 W3        29.82S
CLOQUET        CLOUDY    30  28  93 W3        29.84S
BRAINERD       CLOUDY    30  25  81 W6        29.85S WCI  24
HIBBING        CLOUDY    29  27  92 SW3       29.83R
ALEXANDRIA     CLOUDY    30  23  75 N5        29.85S
SAINT CLOUD    CLOUDY    31  26  82 CALM      29.87R
MINNEAPOLIS    CLOUDY    32  27  81 N5        29.88R
$$

  *****  WEATHER ACROSS SOUTH DAKOTA  *****

CITY           SKY/WX    TMP DP  RH WIND       PRES   REMARKS
SIOUX FALLS    CLOUDY    32  30  92 SE8       29.80S WCI  25
BROOKINGS      CLOUDY    30  28  92 E5        29.80R
WATERTOWN      CLOUDY    29  27  92 E6        29.81R WCI  23
HURON          CLOUDY    31  29  92 NE7       29.80S WCI  24
SISSETON         N/A     31  29  92 CALM      29.84S
ABERDEEN       CLOUDY    29  26  89 NE6       29.84R FOG     WCI  23
MITCHELL       CLOUDY    32  30  92 E8        29.79S WCI  25
PIERRE         CLOUDY    28  26  92 E9        29.76R WCI  19
MOBRIDGE       CLOUDY    28  23  81 NE9       29.78R WCI  19
RAPID CITY     CLOUDY    23  21  92 N18       29.72S FOG     WCI   9
$$

  *****  SOME WEATHER IN NEARBY STATES *****

CITY           SKY/WX    TMP DP  RH WIND       PRES   REMARKS
GLASGOW MT     CLOUDY    20  15  81 W10       29.87R WCI   9
GREAT FALLS MT CLOUDY    17  14  88 SW3       29.85S
CHEYENNE WY    CLOUDY    30  28  92 W7        29.51R WCI  23
SCOTTSBLUFF NE LGT SNOW  26  21  81 NE17      29.59S WCI  13
OMAHA NE       CLOUDY    31  26  82 E8        29.81F WCI  23
DES MOINES IA  CLOUDY    32  27  81 SE5       29.87R
DAVENPORT IA   CLOUDY    33  30  88 W6        29.87S
CHICAGO IL     CLOUDY    37  34  89 NW10      29.83R
EAU CLAIRE WI  CLOUDY    32  31  96 W3        29.85S FOG
LA CROSSE WI   CLOUDY    36  31  82 CALM      29.87R
$$

  *****  SOME NATIONAL WEATHER *****

CITY           SKY/WX    TMP DP  RH WIND       PRES   REMARKS
LA GUARDIA NY  LGT RAIN  39  35  86 N18G30    29.36R FOG
RALEIGH NC     MOCLDY    43  37  79 NW5       29.52R
ATLANTA GA     MOCLDY    48  42  80 NW15      29.73S
NEW ORLEANS LA FAIR      50  47  89 CALM      29.90F
OKLAHOMA CITY  FAIR      43  35  73 S12       29.61F
ALBUQUERQUE NM MOCLDY    38  32  79 NW7       29.64F
SALT LAKE CITY CLOUDY    31  29  92 CALM      29.65R
LOS ANGELES CA FAIR      44  38  79 E7        29.93R
BOISE ID       CLOUDY    28  23  81 W10       29.70R WCI  19
SEATTLE WA     FAIR      35  31  85 SE6       30.02R
$$

*** WEATHER ACROSS MANITOBA...SASKATCHEWAN AND ONTARIO ***
                ***ONTARIO***

CITY           SKY/WX    TMP DP  RH WIND       PRES   REMARKS
GERALDTON      DRZL/FOG  32  32 100 NW3       29.77S VSB 1/8
THUNDER BAY    CLOUDY    32  32 100 VRB2      29.82R
SIOUX LOOKOUT  CLOUDY    32  30  93 W6        29.78R
TORONTO        MOCLDY    32  27  80 NE7       29.72F
BIG TROUT LK   CLOUDY    23  23 100 E2        29.79S
PICKLE LAKE    NOT AVBL
DRYDEN         CLOUDY    28  28 100 W9        29.79R FOG     WCI  20
KENORA         FLURRIES  27  23  86 S9        29.78S WCI  17
$$
                *** MANITOBA***

CITY           SKY/WX    TMP DP  RH WIND       PRES   REMARKS
BRANDON        FLURRIES  23  19  86 W14       29.76R WCI  11
DAUPHIN        LGT SNOW  23  21  93 NW7       29.78R WCI  15
ISLAND LAKE    LGT SNOW  30  30 100 E3        29.74R
PILOT MOUND      N/A     21  18  86 W7          N/A  WCI  13
THE PAS        FLURRIES  14   9  79 NW9       29.86R WCI   2
THOMPSON       FLURRIES  18  16  93 N6        29.83R WCI   9
WINNIPEG       FLURRIES  27  23  86 SW10      29.77R WCI  17
LYNN LAKE      FLURRIES   7   5  92 NW6       29.87R WCI  -3
CHURCHILL      FLURRIES  10   9  92 NE7       29.97S WCI   0
GILLAM         FLURRIES  14  12  92 NE8       29.86S WCI   3
$$
                ***SASKATCHEWAN***

CITY           SKY/WX    TMP DP  RH WIND       PRES   REMARKS
ESTEVAN        CLOUDY    18  14  86 NW14      29.83R WCI   4
KINDERSLEY     FLURRIES  10   7  85 NW7       29.87R WCI   0
LLOYDMINSTER   FLURRIES   9   7  92 NW5       29.90R WCI   0
PRINCE ALBERT  LGT SNOW  12   9  85 N5        29.90R WCI   4
REGINA         CLOUDY    14  10  85 NW13      29.85R WCI   0
YORKTON        CLOUDY    18  14  86 NW12      29.79R WCC1F1C2F2C3F3C4F4C5F5C6F6C7F7C8F8C9F9CaFaCbFbCcFcCdFdCe!


USA.gov is the U.S. government's official web portal to all federal, state and local government web resources and services.